P/2008 T4 (Hill)
Epoch 2009 Jan. 9.0 TT = JDT 2454840.5  
T 2008 Dec. 23.99136 TT                                 Nakano
q   2.5117380            (2000.0)            P               Q
n   0.10508882     Peri.    1.27076     +0.69532785     -0.71450327
a   4.4473199      Node    44.68346     +0.65841176     +0.59007020
e   0.4352244      Incl.    6.32649     +0.28812001     +0.37590189
P   9.38 (+/- 0.02 day)
From 255 observations 2008 Sept. 28-2009 Feb. 27, mean residual 0".57.
Residuals in seconds of arc 
2008/                     081025 704  0.9-  0.5-    081124 G96  0.7+  0.3+  
080928 704  0.7+  0.2+    081025 B37  0.2-  0.4+    081124 G96  1.3+  0.1+  
080928 704  0.8+  1.0+    081026 B37  0.7-  0.5+    081124 704 (2.0+  0.2+) 
080928 704  0.7+  0.7+    081026 B37  0.2+  0.2+    081124 704  0.3+  0.3+  
080928 704  0.7+  0.4+    081026 B37  0.0   0.2+    081124 704  0.9-  1.8+  
080928 704  0.4+  0.3+    081026 673  0.2+  0.6+    081127 E85  0.8-  0.3-  
080929 703  0.2-  0.7-    081026 673  0.2+  0.6+    081127 E85  0.0   0.8-  
080929 703  0.3-  0.9+    081026 673  0.2-  0.5+    081127 E85  0.9-  0.1+  
080929 703  0.2+  0.7+    081026 H45  0.2+  0.2+    081129 349  0.2+  0.3-  
080929 703  0.7-  0.4-    081026 H45  0.1+  0.1+    081129 349  0.0   0.0   
080930 704  1.1+  1.4+    081026 673  0.2-  0.4+    081129 349  0.3+  0.2-  
080930 704  0.3+  1.4+    081026 H45  0.6-  0.2-    081129 213  0.5-  0.4-  
080930 704  0.4+  0.6-    081026 H45  0.2-  0.1-    081129 213  0.3+  0.3+  
080930 704  1.1+  1.2+    081026 H45  0.1-  0.4-    081129 213  0.0   0.1-  
080930 704  0.3+  1.1+    081027 372  0.7+  0.3-    081202 900  0.0   0.0   
081008 691  0.2-  0.1+    081027 372  0.5+  0.1+    081202 900  0.4+  0.4-  
081008 691  0.1-  0.1+    081027 372  0.8-  0.4+    081203 E85  0.8-  0.4-  
081008 691  0.0   0.0     081028 585  0.9-  0.5+    081203 E85  0.1-  0.1-  
081008 703  0.7+  1.4+    081028 585  0.5+  0.1-    081203 E85  0.5-  0.2-  
081008 703  0.4-  0.2-    081028 585  0.7+  0.1-    081205 B49  0.3+  0.8-  
081008 703  0.9-  0.5+    081028 585  0.4-  0.5-    081205 B49  1.2+  1.3-  
081008 703  0.4-  0.0     081028 585  0.0   0.4-    081205 B49  1.9+  0.4-  
081008 703  0.9-  0.5-    081028 585  0.0   0.5-    081219 204  0.3-  0.2+  
081008 703  0.6-  1.0-    081028 585  0.4+  0.7-    081219 213  0.0   0.1+  
081008 703  0.6-  0.8-    081028 585  1.5-  0.8-    081219 213  0.4+  0.1+  
081008 703  1.4-  0.1-    081029 G96  0.4-  0.3-    081219 204  0.3+  0.1+  
081008 G96  0.6+  0.1+    081029 G96  0.4-  0.5-    081220 703  1.0-  0.3-  
081008 G96  0.2+  0.1-    081029 G96  0.2-  0.3-    081220 703  0.1-  0.4+  
081008 G96  0.1-  0.3-    081029 G96  0.2-  0.2-    081220 703  0.5-  0.1-  
081008 G96  0.1-  0.0     081030 J47  0.1-  0.3+    081220 703  0.3-  0.0   
081008 900  1.1+  0.2-    081030 J47  0.1-  0.2-    081220 349  1.4+  0.7+  
081008 900  0.9+  0.7-    081030 J47  0.2-  0.2-    081220 349  1.1+  0.5+  
081008 E16  1.0+  0.8+    081030 J47  0.0   0.1-    081220 J24  0.5+  0.1+  
081008 E16  0.8+  0.1+    081031 850  0.3+  0.2-    081220 J24  0.2+  0.2+  
081008 E16  0.5+  0.6-    081031 850  1.1-  0.6+    081220 J24  0.1+  0.0   
081009 A55  0.3+  0.4+    081031 850  0.2+  0.0     081220 J24  0.3-  0.3+  
081009 A55  0.5+  0.0     081031 704  0.7+  0.1-    081221 673  1.1-  0.6-  
081009 A55  0.1+  0.1+    081031 704  0.2-  0.0     081221 673  1.5-  0.5-  
081009 673  0.9+  0.4+    081031 704  0.2-  0.5-    081221 673  1.7-  0.4-  
081009 673  0.1+  0.8+    081031 704  0.1+  0.7-    081221 673  1.3-  0.9-  
081009 673  0.5+  0.1+    081031 704  1.5-  0.0     081221 349  0.5-  0.3-  
081009 673  1.1-  0.6-    081104 850  0.2-  0.2+    081221 349  0.0   0.0   
081009 349  0.1-  0.4+    081104 850  0.1+  0.0     081223 900  0.3-  0.1-  
081009 349  0.4-  0.6+    081104 850  0.1-  0.1-    081223 900  0.8-  0.6-  
081009 349  0.3-  0.7+    081104 056  0.2+  0.1+    081229 704  0.0   0.7+  
081009 104  0.1-  0.3+    081104 056  0.1+  0.4+    081229 704  0.1-  0.0   
081009 104  0.9-  0.5+    081104 056  0.1+  0.0     081229 704  0.1-  0.2+  
081009 104  1.2-  1.0+    081105 349  0.8+  0.2+    081229 704  0.2-  0.6+  
081009 204  0.2+  0.2+    081105 349  0.9+  0.2+    081229 704  0.5-  1.0+  
081009 204  0.2+  0.1+    081107 204  0.0   0.1-    081230 704  0.8-  0.6-  
081010 850  0.7-  0.8-    081108 204  0.2-  0.0     081230 704 (2.1+  0.0 ) 
081010 850  0.0   0.4-    081109 056  1.0+  0.9+    081230 704  0.3+  0.1+  
081010 850  0.3+  0.5-    081109 056  0.3-  0.1-    081230 704  0.3-  0.6-  
081010 850  0.6-  0.3-    081109 056  0.4-  0.4+    081230 704  1.2+  0.0   
081010 A77 (1.6-  3.3+)   081114 213  0.7-  0.7+    081231 G96  0.8+  0.1-  
081010 A77  0.1-  0.0     081114 213  0.6-  0.3+    081231 G96  1.3+  0.0   
081010 629 (2.8+  0.5+)   081114 213  0.7-  0.2-    081231 G96  1.1+  0.1-  
081010 A77  0.1+  0.1+    081116 104  0.6-  0.3+    081231 G96  1.0+  0.2-  
081010 B49  0.6+  0.3+    081116 104  0.2-  0.4+    2009/                   
081010 B49  0.3+  1.0-    081116 104  0.2-  0.1+    090101 204  0.0   0.1-  
081010 118  0.1-  0.2-    081116 473  0.1-  0.1-    090101 204  0.4+  0.1+  
081010 118  0.1-  0.2-    081116 473  0.1+  0.1-    090103 349  0.2+  0.0   
081010 213  0.8-  0.4-    081118 355  1.3+  0.5-    090103 349  0.4+  0.1+  
081011 213  0.7-  0.5-    081118 355  0.9+  0.7-    090113 215  0.2-  0.7-  
081011 213  0.1+  0.4-    081118 355  0.6+  0.6-    090113 215  0.2-  0.3-  
081018 900  0.5+  0.4-    081118 355  1.4+  0.1-    090113 215  0.0   0.1-  
081018 900  0.5-  0.2+    081118 B42  0.4-  0.2+    090121 204  0.1+  0.4-  
081018 473  0.0   0.3-    081118 B42  0.3-  0.9+    090121 204  0.2+  0.1-  
081018 473  0.0   0.3-    081118 585  1.1+  0.1-    090129 704 (2.0-  1.7+) 
081020 G96  0.6-  0.1-    081118 585  1.5+  0.1+    090129 704  0.2-  0.5+  
081020 G96  0.0   0.0     081118 585 (2.3+  0.0 )   090129 704  0.8+  0.5+  
081020 G96  0.4-  0.4-    081118 585  1.2+  0.0     090129 704  0.1-  0.4+  
081020 G96  0.3-  0.2-    081118 585  0.2-  0.2+    090217 704  1.6-  1.2+  
081020 G96  0.5-  0.2-    081119 704  1.6+  0.1+    090217 704  0.3+  0.8-  
081020 G96  0.3-  0.0     081119 704  0.4+  0.3+    090217 704 (2.3-  0.5-) 
081020 G96  0.0   0.1-    081119 704  0.3-  0.8+    090217 704  1.0-  0.7+  
081020 G96  0.9-  0.1-    081119 704  1.3-  0.3+    090217 704 (3.7+  0.9+) 
081020 215  0.1+  0.4-    081119 704 (2.0-  0.5+)   090217 130  0.7+  1.0-  
081020 215  0.1+  0.4-    081119 900  0.3-  0.0     090217 130  0.3-  0.6-  
081020 A71 (3.8-  1.4+)   081119 900  0.4-  0.3-    090217 130  0.4+  0.4+  
081020 215  0.0   0.3-    081119 130  0.2-  0.7-    090222 704  0.7-  0.5+  
081020 A71  0.3-  0.2-    081119 130  0.4-  0.4-    090222 704  0.5-  0.9+  
081020 J47  0.1+  0.2-    081119 130  0.2+  0.1-    090222 704  0.1-  0.7+  
081020 J47  0.2+  0.2-    081119 130  0.4+  0.3+    090222 704  0.9-  0.3+  
081020 J47  0.3+  0.0     081120 372  1.0-  0.5+    090222 704  0.9-  1.1+  
081020 J47  0.3+  0.1-    081120 900  0.1-  0.2-    090227 703 (2.2+  1.0-) 
081025 704  0.1+  0.4-    081120 900  0.2-  0.0     090227 703  1.6+  0.5+  
081025 704  0.2-  0.8-    081124 G96  1.2+  0.0     090227 703  0.5+  0.1-  
081025 704  0.5-  0.8-    081124 G96  1.7+  0.3+    090227 703  0.3+  0.3-  
081025 704  0.1-  0.9-    081124 704 (2.5+  0.2-)                           
         **** Don't distribute anyone except personal use only ****
                (C) Copyright 2009 OAA/ComputingSection
write mail from CFAD0::NAKANO on 2009-03-19 05:48:55(JST).
 

    P/2008 T4 (Hill)
Epoch 2009 Jan. 9.0 TT = JDT 2454840.5  
T 2008 Dec. 23.90966 TT                                 Nakano
q   2.5118994            (2000.0)            P               Q
n   0.10510135     Peri.    1.24527     +0.69564896     -0.71419053
a   4.4469666      Node    44.68320     +0.65814623     +0.59036518
e   0.4351432      Incl.    6.32660     +0.28795151     +0.37603304
P   9.38 (+/- 0.06 day)
From 195 observations 2008 Sept. 28-Dec. 5, mean residual 0".55.

NAKANO
         **** Don't distribute anyone except personal use only ****
                (C) Copyright 2008 OAA/ComputingSection
write mail from CFAD0::NAKANO on 2008-12-18 03:31:25(JST).
 
 


    P/2008 T4 (Hill)

T 2008 Dec. 23.48262 TT                                 Nakano

q   2.5117581            (2000.0)            P               Q

n   0.10520137     Peri.    1.11169     +0.69717565     -0.71270491

a   4.4441475      Node    44.69410     +0.65689049     +0.59181205

e   0.4348167      Incl.    6.32189     +0.28712540     +0.37657696

P   9.37 (+/- 0.46 day)

From 103 observations 2008 Sept. 28-Oct. 27.
                      



NAKANO

         **** Don't distribute anyone except personal use only ****

                (C) Copyright 2008 OAA/ComputingSection

write mail from CFAD0::NAKANO on 2008-11-05 05:02:23(JST).

 

◎P/2008 T4の軌道と予報位置



  守山の井狩康一氏から10月8日の観測,上尾の門田健一氏から9日の観測が

報告されました.井狩氏の観測は,発見公表前の確認観測です.彗星のCCD全

光度は,井狩氏が18.3等,門田氏が18.0等と観測しています.発見前の観測が

LINEARサーベイ(9月28日,29日),カテリナ・スカイサーベイ(9月29日)

の捜索フレーム上に見つかっています.彗星は,周期が9年ほどの新周期彗星

でした.



    P/2008 T4 (Hill)

T 2008 Dec. 9.23220 TT                                  Nakano

q   2.5122601            (2000.0)            P               Q

n   0.10667819     Peri.  356.65989     +0.74683908     -0.66061216

a   4.4030365      Node    45.00207     +0.61260365     +0.63879813

e   0.4294255      Incl.    6.19499     +0.25874342     +0.39437106

P   9.24 (+/-10.96 days)

From 31 observations 2008 Sept. 28-Oct. 9.

 

Date/        TT  R.A.(2000) Decl.     Delta   r     Daily motion  Mag.  Moon Age

              h    h  m       。  ,                      ,  / PA 。  m1      。

2008 Oct.  1 14  01 56.70  +07 44.7   1.601  2.559     7.7 / 265  17.6  170  .05

           2 14  01 56.18  +07 44.0   1.596  2.558     8.0 / 265  17.6  160  .10

